Weather History for Broken Bow, NE

Change the Weather History Date:

Thursday, November 15, 2012

  Actual Average Record
Temperature  
Mean Temperature 38 °F 36 °F  
Max Temperature 56 °F 49 °F 79 °F (1953)
Min Temperature 19 °F 23 °F -7 °F (1955)
Degree Days  
Heating Degree Days 27 29  
Month to date heating degree days 409 379  
Cooling Degree Days 0 0  
Month to date cooling degree days 0 0  
Year to date cooling degree days 1077 768  
Moisture  
Dew Point 23 °F    
Average Humidity 54    
Maximum Humidity 81    
Minimum Humidity 27    
Precipitation  
Precipitation 0.00 in 0.03 in 0.15 in (1968)
Sea Level Pressure  
Sea Level Pressure 30.34 in    
Wind  
Wind Speed 7 mph (North)    
Max Wind Speed 17 mph    
Max Gust Speed 21 mph    
Visibility 10 miles    
Events      
T = Trace of Precipitation, MM = Missing Value Source: NWS Daily Summary

Daily Weather History Graph

Daily Weather History Graph

Search for Another Location

Airport:

Trip Planner

Search our weather history database for the weather conditions in past years. The results will help you decide how hot, cold, wet, or windy it might be!

Date:

Astronomy

Nov. 15, 2012 Rise Set
Actual Time 7:27 AM CST 5:18 PM CST
Civil Twilight 6:57 AM CST 5:48 PM CST
Nautical Twilight 6:24 AM CST 6:21 PM CST
Astronomical Twilight 5:51 AM CST 6:54 PM CST
Moon 9:25 AM CST 7:10 PM CST
Length of Visible Light 10h 50m
Length of Day
9h 50m
Waxing Crescent, 5% of the Moon is Illuminated
Nov 15
Waxing Crescent
Nov 20
First Quarter
Nov 28
Full
Dec 6
Last Quarter
Dec 13
New

Hourly Weather History & Observations

Time (CST) Temp. Windchill Dew Point Humidity Pressure Visibility Wind Dir Wind Speed Gust Speed Precip Events Conditions
12:53 AM 37.9 °F - 23.0 °F 55% 30.15 in 10.0 mi Calm Calm - N/A   Overcast
1:53 AM 39.9 °F - 23.0 °F 51% 30.15 in 10.0 mi Calm Calm - N/A   Overcast
2:53 AM 39.9 °F 37.8 °F 23.0 °F 51% 30.17 in 10.0 mi North 3.5 mph - N/A   Mostly Cloudy
3:53 AM 39.9 °F 35.8 °F 24.1 °F 53% 30.18 in 10.0 mi NNW 5.8 mph - N/A   Overcast
4:53 AM 39.0 °F 35.7 °F 24.1 °F 55% 30.20 in 10.0 mi North 4.6 mph - N/A   Overcast
5:53 AM 39.0 °F - 26.1 °F 60% 30.24 in 10.0 mi Calm Calm - N/A   Partly Cloudy
6:53 AM 37.0 °F 29.8 °F 27.0 °F 67% 30.28 in 10.0 mi North 10.4 mph - N/A   Partly Cloudy
7:53 AM 34.0 °F 26.0 °F 26.1 °F 73% 30.32 in 10.0 mi North 10.4 mph - N/A   Clear
8:53 AM 39.9 °F 32.1 °F 28.0 °F 63% 30.35 in 10.0 mi North 13.8 mph - N/A   Clear
9:53 AM 45.0 °F 38.5 °F 28.0 °F 52% 30.37 in 10.0 mi North 13.8 mph - N/A   Clear
10:53 AM 48.9 °F - 27.0 °F 43% 30.40 in 10.0 mi NNE 11.5 mph - N/A   Clear
11:53 AM 52.0 °F - 26.1 °F 37% 30.38 in 10.0 mi North 13.8 mph 20.7 mph N/A   Clear
12:53 PM 54.0 °F - 25.0 °F 33% 30.36 in 10.0 mi North 15.0 mph 19.6 mph N/A   Clear
1:53 PM 55.0 °F - 24.1 °F 30% 30.35 in 10.0 mi North 11.5 mph - N/A   Clear
2:53 PM 55.0 °F - 23.0 °F 29% 30.35 in 10.0 mi North 6.9 mph - N/A   Clear
3:53 PM 54.0 °F - 24.1 °F 31% 30.36 in 10.0 mi NNE 9.2 mph - N/A   Clear
4:53 PM 50.0 °F - 24.1 °F 36% 30.38 in 10.0 mi NNE 8.1 mph - N/A   Clear
5:53 PM 36.0 °F 32.1 °F 21.0 °F 55% 30.42 in 10.0 mi North 4.6 mph - N/A   Clear
6:53 PM 32.0 °F 25.6 °F 19.9 °F 61% 30.45 in 10.0 mi North 6.9 mph - N/A   Clear
7:53 PM 33.1 °F 27.7 °F 23.0 °F 66% 30.47 in 10.0 mi North 5.8 mph - N/A   Clear
8:53 PM 28.0 °F - 19.9 °F 72% 30.48 in 10.0 mi Calm Calm - N/A   Clear
9:53 PM 24.1 °F - 19.0 °F 81% 30.48 in 10.0 mi Calm Calm - N/A   Clear
10:53 PM 23.0 °F - 18.0 °F 81% 30.48 in 10.0 mi Calm Calm - N/A   Clear
11:53 PM 19.9 °F - 16.0 °F 85% 30.48 in 10.0 mi Calm Calm - N/A   Clear